[[{"header":{"parameterUnit":"m.s-1","parameterCategory":1,"la1":30.2991,"la2":30.254,"lo1":-89.0895,"lo2":-89.0444,"dy":0.0017,"dx":0.0017,"nx":28,"ny":28,"refTime":"2026-03-03T09:00:00:Z","depth":0,"parameterNumber":2,"parameterNumberName":"U-component_of_WINDS"},"data":[0,0,0,0,0,0,0,0,0,0,0,0,0,0,0,0,0,0,0,0,0,0,0,0,0,0,0,0,0,0,0,0,0,0,0,0,0,0,0,0,0,0,0,0,0,0,0,0,0,0,0,0,0,0,0,0,0,0,-3.5916,-3.5916,0,-3.5923,-3.5923,-3.5923,-3.586,-3.5858,-3.5857,-3.5855,-3.5862,-3.5864,-3.5865,0,0,0,0,0,0,0,0,0,0,0,0,0,-3.585,-3.5852,-3.5916,-3.5916,-3.5916,-3.5923,-3.5923,-3.5923,-3.5861,-3.5858,-3.5856,-3.5854,-3.5861,-3.5863,-3.5866,0,0,0,0,0,0,0,0,0,0,0,0,0,-3.587,-3.5852,-3.5916,-3.5886,-3.5883,-3.5923,-3.5923,-3.5923,-3.5861,-3.5858,-3.5856,-3.5853,-3.5861,-3.5863,-3.5866,-3.5935,0,0,-3.5874,-3.5875,0,0,0,0,0,0,0,0,-3.5869,-3.5873,-3.589,-3.5888,-3.5885,-3.5888,-3.5902,-3.5927,-3.5862,-3.5869,-3.5855,-3.5852,-3.5873,-3.5874,-3.5881,-3.5935,-3.5935,-3.5874,-3.5876,-3.5877,-3.5878,0,0,0,0,0,0,0,-3.5868,-3.5872,-3.5919,-3.589,-3.5887,-3.5872,-3.5872,-3.5907,-3.5886,-3.5868,-3.5864,-3.5866,-3.5871,-3.5879,-3.5881,-3.5935,-3.5874,-3.5877,-3.5878,-3.5879,-3.6048,-3.6051,0,0,0,0,0,0,-3.587,-3.5871,-3.5918,-3.5919,-3.5871,-3.5876,-3.5876,-3.589,-3.5885,-3.5882,-3.5868,-3.5863,-3.5875,-3.5878,-3.5881,-3.5962,-3.5877,-3.588,-3.5881,-3.6045,-3.6049,-3.6052,0,0,0,0,0,0,-3.5869,-3.5875,-3.5918,-3.5894,-3.5898,-3.588,-3.5896,-3.5891,-3.5899,-3.5885,-3.5881,-3.588,-3.5873,-3.5877,-3.5922,-3.5961,-3.5881,-3.5883,-3.6042,-3.6046,-3.605,-3.6123,0,0,0,0,0,0,-3.5868,-3.5875,-3.59,-3.5895,-3.59,-3.5959,-3.5898,-3.5893,-3.5904,-3.5897,-3.5895,-3.5892,-3.5872,-3.5919,-3.5925,-3.5963,-3.5885,-3.6038,-3.6044,-3.6049,-3.6117,-3.613,-3.614,0,0,0,0,0,-3.5865,-3.592,-3.5902,-3.5908,-3.5931,-3.5961,-3.5964,-3.594,-3.5907,-3.5933,-3.5924,-3.5892,-3.5956,-3.5924,-3.593,-3.597,-3.6036,-3.6042,-3.6048,-3.6112,-3.6127,-3.614,0,0,0,0,0,0,-3.593,-3.5919,-3.5898,-3.5953,-3.5959,-3.595,-3.5982,-3.5956,-3.5971,-3.5964,-3.5934,-3.5934,-3.5984,-3.5982,-3.5946,-3.6037,-3.599,-3.5998,-3.6036,-3.6051,-3.6062,-3.606,-3.5888,0,0,0,0,0,-3.5951,-3.5976,-3.5965,-3.6014,-3.6018,-3.6,-3.6012,-3.5994,-3.5998,-3.6,-3.5994,-3.6,-3.6022,-3.6036,-3.6055,-3.6118,-3.6117,-3.6149,-3.616,-3.617,-3.6176,-3.621,-3.6224,-3.6073,-3.6073,-3.6073,0,0,-3.5993,-3.599,-3.6008,-3.6027,-3.6029,-3.6057,-3.6002,-3.6033,-3.6053,-3.6004,-3.6046,-3.6043,-3.6048,-3.6102,-3.6126,-3.6102,-3.6218,-3.6178,-3.6185,-3.6187,-3.6218,-3.6233,-3.6245,-3.6077,-3.6076,-3.6076,0,0,-3.6084,-3.6085,-3.6126,-3.613,-3.6135,-3.6123,-3.6133,-3.613,-3.6126,-3.6168,-3.6133,-3.6157,-3.6194,-3.62,-3.6207,-3.6305,-3.6276,-3.6312,-3.637,-3.6404,-3.6416,-3.6426,-3.6461,-3.6474,-3.6319,-3.6319,-3.6319,0,-3.6136,-3.6175,-3.6151,-3.6184,-3.6194,-3.6154,-3.6196,-3.6201,-3.6212,-3.622,-3.6193,-3.6241,-3.6241,-3.6297,-3.6321,-3.6329,-3.634,-3.6311,-3.6416,-3.6426,-3.6436,-3.6468,-3.6482,-3.6324,-3.6323,-3.6323,-3.6322,0,-3.6239,-3.6268,-3.6301,-3.6313,-3.6327,-3.6365,-3.6347,-3.6364,-3.6346,-3.6337,-3.6382,-3.6381,-3.64,-3.6413,-3.6394,-3.6466,-3.6451,-3.6421,-3.6373,-3.6455,-3.6485,-3.6497,-3.633,-3.6328,-3.6327,-3.6326,0,0,-3.6367,-3.6368,-3.638,-3.6386,-3.639,-3.6411,-3.6449,-3.6468,-3.6484,-3.6494,-3.6524,-3.6559,-3.6532,-3.6541,-3.6523,-3.6553,-3.6631,-3.6519,-3.6519,-3.6539,-3.6711,-3.6732,-3.6747,-3.6613,-3.6615,-3.6617,-3.671,0,-3.6455,-3.6518,-3.6499,-3.6562,-3.6589,-3.6552,-3.6585,-3.6592,-3.6586,-3.6608,-3.6601,-3.6626,-3.6588,-3.6594,-3.6622,-3.6615,-3.6664,-3.6608,-3.6641,-3.6642,-3.6639,-3.6763,-3.6785,-3.6873,-3.6722,-3.6724,-3.6725,0,-3.6565,-3.6581,-3.6647,-3.6649,-3.6659,-3.6689,-3.6706,-3.6728,-3.6735,-3.6729,-3.6741,-3.6718,-3.6756,-3.671,-3.6761,-3.6724,-3.6737,-3.6736,-3.6739,-3.6739,-3.6687,-3.6765,-3.69,-3.6913,-3.6744,-3.6742,-3.6741,0,-3.6651,-3.6689,-3.6734,-3.674,-3.6743,-3.6765,-3.6768,-3.6773,-3.6786,-3.6802,-3.6811,-3.6831,-3.6841,-3.6858,-3.6841,-3.6809,-3.6896,-3.6848,-3.6892,-3.6892,-3.6909,-3.6908,-3.7047,-3.6921,-3.692,-3.692,-3.692,0,-3.6751,-3.6793,-3.6773,-3.68,-3.6847,-3.6826,-3.6873,-3.6871,-3.6877,-3.6904,-3.6874,-3.6901,-3.6878,-3.6903,-3.6891,-3.6936,-3.6941,-3.6937,-3.6933,-3.6939,-3.6939,-3.6945,-3.6938,-3.6924,-3.6923,-3.6922,-3.6922,0,-3.6853,-3.6841,-3.6888,-3.6888,-3.689,-3.6924,-3.6924,-3.695,-3.6944,-3.6979,-3.6986,-3.6975,-3.7003,-3.699,-3.7018,-3.701,-3.7068,-3.7057,-3.7066,-3.7062,-3.7106,-3.7102,-3.7252,-3.727,-3.7134,-3.7135,-3.7136,0,-3.6916,-3.6948,-3.6952,-3.6969,-3.6973,-3.7,-3.7015,-3.6996,-3.7012,-3.7025,-3.705,-3.7076,-3.7095,-3.7141,-3.7136,-3.7159,-3.7147,-3.7198,-3.715,-3.7155,-3.7147,-3.7144,-3.7147,-3.7207,-3.7208,-3.721,-3.7211,0,-3.7029,-3.7023,-3.7045,-3.7066,-3.7084,-3.7099,-3.7112,-3.7128,-3.711,-3.713,-3.7159,-3.7174,-3.7205,-3.723,-3.7251,-3.7253,-3.723,-3.7227,-3.7238,-3.7243,-3.7246,-3.7245,-3.7091,-3.7223,-3.7221,-3.7221,-3.722,-3.7219,-3.7113,-3.714,-3.7148,-3.7174,-3.7183,-3.7196,-3.7221,-3.7219,-3.7242,-3.7266,-3.7254,-3.7288,-3.7297,-3.7322,-3.7329,-3.7355,-3.7335,-3.7351,-3.7355,-3.7359,-3.7364,-3.7244,-3.7359,-3.7359,-3.7358,-3.7358,-3.7358,0,-3.7224,-3.7228,-3.7253,-3.7273,-3.7294,-3.7271,-3.7285,-3.7304,-3.7334,-3.7345,-3.7366,-3.74,-3.7426,-3.7425,-3.7449,-3.747,-3.746,-3.7477,-3.7474,-3.7476,-3.7381,-3.7369,-3.7485,-3.7485,-3.7485,-3.7485,-3.7485,-3.7485,-3.7284,-3.7329,-3.7324,-3.7374,-3.7378,-3.7411,-3.7421,-3.7434,-3.7443,-3.7482,-3.7504,-3.7503,-3.751,-3.7535,-3.7558,-3.7557,-3.7567,-3.7588,-3.7583,-3.7495,-3.7482,-3.747,-3.7458,-3.7591,-3.7591,-3.7675,-3.7676,-3.7676]},{"header":{"parameterUnit":"m.s-1","parameterCategory":1,"la1":30.2991,"la2":30.254,"lo1":-89.0895,"lo2":-89.0444,"dy":0.0017,"dx":0.0017,"nx":28,"ny":28,"refTime":"2026-03-03T09:00:00:Z","depth":0,"parameterNumber":3,"parameterNumberName":"V-component_of_WINDS"},"data":[0,0,0,0,0,0,0,0,0,0,0,0,0,0,0,0,0,0,0,0,0,0,0,0,0,0,0,0,0,0,0,0,0,0,0,0,0,0,0,0,0,0,0,0,0,0,0,0,0,0,0,0,0,0,0,0,0,0,1.0975,1.0975,0,1.0961,1.0961,1.0961,1.0956,1.0956,1.0956,1.0956,1.0938,1.0938,1.0937,0,0,0,0,0,0,0,0,0,0,0,0,0,1.0994,1.0994,1.0975,1.0975,1.0974,1.0961,1.0961,1.0961,1.0956,1.0956,1.0956,1.0956,1.0938,1.0938,1.0937,0,0,0,0,0,0,0,0,0,0,0,0,0,1.0983,1.0993,1.0975,1.097,1.097,1.0962,1.0961,1.0961,1.0956,1.0956,1.0956,1.0956,1.0939,1.0938,1.0937,1.0931,0,0,1.0935,1.0935,0,0,0,0,0,0,0,0,1.0984,1.0983,1.0971,1.0971,1.097,1.096,1.0962,1.0951,1.0956,1.0961,1.0956,1.0956,1.0945,1.0944,1.0941,1.0931,1.093,1.0935,1.0934,1.0934,1.0934,0,0,0,0,0,0,0,1.0985,1.0983,1.0969,1.0971,1.097,1.0968,1.0967,1.096,1.0953,1.096,1.096,1.0959,1.0945,1.0942,1.0941,1.093,1.0935,1.0934,1.0934,1.0933,1.0916,1.0916,0,0,0,0,0,0,1.0987,1.0984,1.097,1.0969,1.0977,1.0968,1.0966,1.0963,1.0953,1.0951,1.0959,1.0958,1.0943,1.0942,1.094,1.0934,1.0934,1.0933,1.0933,1.0916,1.0916,1.0916,0,0,0,0,0,0,1.0987,1.0985,1.097,1.0976,1.0974,1.0968,1.0964,1.0963,1.096,1.0952,1.095,1.0957,1.0943,1.0941,1.0934,1.0934,1.0933,1.0932,1.0916,1.0916,1.0916,1.0922,0,0,0,0,0,0,1.0988,1.0986,1.0983,1.0976,1.0974,1.0965,1.0964,1.0963,1.0959,1.0959,1.095,1.0948,1.0943,1.0936,1.0934,1.0933,1.0932,1.0916,1.0916,1.0916,1.0922,1.0922,1.0922,0,0,0,0,0,1.0988,1.0984,1.0983,1.0982,1.0971,1.0965,1.0964,1.0959,1.0959,1.0957,1.0952,1.0948,1.0934,1.0935,1.0933,1.0931,1.0916,1.0916,1.0916,1.0921,1.0922,1.0922,0,0,0,0,0,0,1.0989,1.0983,1.0982,1.0976,1.0971,1.0964,1.0961,1.0959,1.0954,1.0953,1.0947,1.0945,1.0939,1.0934,1.0935,1.0927,1.0925,1.0925,1.093,1.093,1.093,1.0932,1.0931,0,0,0,0,0,1.0989,1.0985,1.098,1.0974,1.0973,1.0968,1.0964,1.0962,1.0956,1.0954,1.0948,1.0943,1.0937,1.0933,1.0927,1.0921,1.092,1.0919,1.092,1.092,1.092,1.0918,1.0918,1.0916,1.0916,1.0916,0,0,1.0987,1.0984,1.0981,1.0975,1.0971,1.0967,1.0966,1.0961,1.0958,1.0953,1.0947,1.0943,1.0936,1.093,1.0927,1.0926,1.092,1.092,1.092,1.092,1.0918,1.0918,1.0918,1.0916,1.0916,1.0916,0,0,1.0983,1.098,1.0976,1.0973,1.0969,1.0966,1.0965,1.0959,1.0957,1.0952,1.0948,1.0945,1.0935,1.0931,1.0927,1.0926,1.0923,1.0924,1.0925,1.0924,1.0924,1.0924,1.0925,1.0925,1.0923,1.0924,1.0924,0,1.0981,1.0976,1.0974,1.0971,1.0968,1.0966,1.0963,1.096,1.0953,1.0951,1.095,1.094,1.0935,1.0929,1.0929,1.0926,1.0926,1.0924,1.0924,1.0924,1.0925,1.0925,1.0925,1.0924,1.0924,1.0924,1.0924,0,1.0975,1.0972,1.097,1.0966,1.0963,1.096,1.0957,1.0955,1.0953,1.0951,1.0946,1.0941,1.0935,1.0933,1.093,1.0928,1.0928,1.0926,1.0924,1.0925,1.0926,1.0926,1.0924,1.0924,1.0924,1.0924,0,0,1.0969,1.0966,1.0966,1.0965,1.0961,1.0958,1.0956,1.0952,1.0951,1.0947,1.0944,1.0938,1.0937,1.0934,1.0931,1.0929,1.0931,1.0928,1.0928,1.0929,1.0929,1.0931,1.0931,1.0929,1.0929,1.0929,1.093,0,1.0965,1.0961,1.096,1.0956,1.0954,1.0953,1.0951,1.0949,1.0947,1.0945,1.0942,1.0938,1.0937,1.0935,1.0934,1.0931,1.093,1.0931,1.0927,1.0927,1.0929,1.0931,1.0932,1.0933,1.093,1.093,1.093,0,1.0958,1.0957,1.0954,1.0954,1.0953,1.0951,1.0949,1.0947,1.0944,1.0943,1.0941,1.0939,1.0937,1.0936,1.0933,1.0933,1.0932,1.093,1.093,1.0929,1.0928,1.0931,1.0933,1.0934,1.093,1.093,1.093,0,1.0955,1.0953,1.0951,1.0951,1.0949,1.0949,1.0948,1.0946,1.0945,1.0943,1.0942,1.0939,1.0938,1.0936,1.0934,1.0933,1.0931,1.093,1.093,1.0931,1.0929,1.0929,1.0932,1.0928,1.0928,1.0928,1.0928,0,1.0951,1.0949,1.095,1.0949,1.0948,1.0948,1.0946,1.0945,1.0944,1.0943,1.0942,1.0941,1.0938,1.0936,1.0934,1.0933,1.0932,1.0931,1.0931,1.0932,1.0932,1.093,1.093,1.0928,1.0928,1.0928,1.0928,0,1.0946,1.0947,1.0946,1.0946,1.0947,1.0946,1.0946,1.0945,1.0945,1.0943,1.0943,1.0942,1.094,1.0938,1.0935,1.0934,1.0934,1.0932,1.0935,1.0935,1.0936,1.0936,1.0938,1.0939,1.0934,1.0934,1.0934,0,1.0943,1.0942,1.0944,1.0944,1.0945,1.0944,1.0944,1.0944,1.0944,1.0944,1.0943,1.0942,1.0942,1.094,1.0938,1.0937,1.0936,1.0937,1.0935,1.0937,1.0937,1.0937,1.0938,1.0937,1.0937,1.0937,1.0937,0,1.0938,1.094,1.094,1.0942,1.0942,1.0943,1.0943,1.0943,1.0943,1.0943,1.0943,1.0943,1.0942,1.0942,1.0941,1.094,1.0939,1.0938,1.0938,1.0939,1.0941,1.0941,1.0936,1.0937,1.0937,1.0937,1.0937,1.0937,1.0935,1.0935,1.0937,1.0939,1.094,1.0941,1.0941,1.0942,1.0943,1.0943,1.0943,1.0944,1.0944,1.0943,1.0942,1.0943,1.0942,1.0942,1.0942,1.0942,1.0943,1.0941,1.0942,1.0942,1.0942,1.0942,1.0942,0,1.0931,1.0933,1.0934,1.0937,1.0938,1.0939,1.0941,1.0942,1.0943,1.0944,1.0944,1.0945,1.0945,1.0945,1.0946,1.0946,1.0946,1.0946,1.0946,1.0946,1.0943,1.0943,1.0947,1.0947,1.0947,1.0947,1.0947,1.0947,1.0929,1.093,1.0932,1.0935,1.0937,1.0939,1.094,1.0941,1.0942,1.0944,1.0945,1.0946,1.0947,1.0948,1.0949,1.0949,1.0949,1.095,1.095,1.0947,1.0946,1.0946,1.0946,1.095,1.095,1.0953,1.0953,1.0953]}]]